[[{"header":{"parameterUnit":"m.s-1","parameterCategory":1,"la1":30.2991,"la2":30.254,"lo1":-89.0895,"lo2":-89.0444,"dy":0.0017,"dx":0.0017,"nx":28,"ny":28,"refTime":"2025-03-30T03:00:00:Z","depth":0,"parameterNumber":2,"parameterNumberName":"U-component_of_WINDS"},"data":[0,0,0,0,0,0,0,0,0,0,0,0,0,0,0,0,0,0,0,0,0,0,0,0,0,0,0,0,0,0,0,0,0,0,0,0,0,0,0,0,0,0,0,0,0,0,0,0,0,0,0,0,0,0,0,0,0,0,-1.8338,-1.8338,0,-1.8331,-1.8331,-1.8331,-1.83,-1.8299,-1.8298,-1.8298,-1.829,-1.829,-1.8291,0,0,0,0,0,0,0,0,0,0,0,0,0,-1.8323,-1.8324,-1.8338,-1.8338,-1.8338,-1.8331,-1.8331,-1.8331,-1.83,-1.8299,-1.8298,-1.8297,-1.8289,-1.829,-1.8291,0,0,0,0,0,0,0,0,0,0,0,0,0,-1.8324,-1.8324,-1.8338,-1.8322,-1.832,-1.8331,-1.8331,-1.8331,-1.83,-1.8299,-1.8298,-1.8297,-1.8289,-1.829,-1.8291,-1.8317,0,0,-1.8293,-1.8293,0,0,0,0,0,0,0,0,-1.8324,-1.8325,-1.8324,-1.8323,-1.8321,-1.8315,-1.8323,-1.8326,-1.83,-1.8308,-1.8298,-1.8296,-1.8299,-1.8299,-1.83,-1.8316,-1.8316,-1.8293,-1.8293,-1.8294,-1.8294,0,0,0,0,0,0,0,-1.8324,-1.8325,-1.8336,-1.8324,-1.8323,-1.8314,-1.8313,-1.8323,-1.831,-1.8307,-1.8305,-1.8304,-1.8298,-1.8299,-1.8299,-1.8316,-1.8293,-1.8293,-1.8294,-1.8294,-1.8351,-1.8352,0,0,0,0,0,0,-1.8327,-1.8325,-1.8336,-1.8335,-1.832,-1.8315,-1.8314,-1.8318,-1.8309,-1.8307,-1.8305,-1.8303,-1.8299,-1.8299,-1.8299,-1.8327,-1.8294,-1.8294,-1.8295,-1.835,-1.8351,-1.8352,0,0,0,0,0,0,-1.8327,-1.8328,-1.8336,-1.833,-1.833,-1.8317,-1.8322,-1.8319,-1.832,-1.8308,-1.8305,-1.8309,-1.8298,-1.8298,-1.8312,-1.8326,-1.8295,-1.8295,-1.8348,-1.835,-1.8351,-1.8384,0,0,0,0,0,0,-1.8326,-1.8328,-1.8339,-1.833,-1.8331,-1.835,-1.8323,-1.8319,-1.8321,-1.8318,-1.8311,-1.8309,-1.8297,-1.8311,-1.8313,-1.8326,-1.8296,-1.8347,-1.8349,-1.8351,-1.8381,-1.8386,-1.8391,0,0,0,0,0,-1.8326,-1.8348,-1.8339,-1.8341,-1.8343,-1.8351,-1.8351,-1.8337,-1.8323,-1.8332,-1.8324,-1.8309,-1.8325,-1.8313,-1.8314,-1.8329,-1.8346,-1.8348,-1.8351,-1.8379,-1.8385,-1.8391,0,0,0,0,0,0,-1.8359,-1.8347,-1.8337,-1.8357,-1.8355,-1.8345,-1.8357,-1.8344,-1.8346,-1.8343,-1.8325,-1.8324,-1.834,-1.8336,-1.8323,-1.8352,-1.8333,-1.8335,-1.8354,-1.8359,-1.8364,-1.8364,-1.8296,0,0,0,0,0,-1.8369,-1.8376,-1.8365,-1.8384,-1.8384,-1.8371,-1.8374,-1.8363,-1.836,-1.8359,-1.8352,-1.835,-1.8353,-1.8357,-1.836,-1.8381,-1.8378,-1.8392,-1.8396,-1.84,-1.8402,-1.8411,-1.8416,-1.836,-1.836,-1.836,0,0,-1.8389,-1.8383,-1.8389,-1.8391,-1.8388,-1.8395,-1.837,-1.838,-1.8384,-1.836,-1.8372,-1.8367,-1.8363,-1.838,-1.8387,-1.8377,-1.8417,-1.8403,-1.8406,-1.8406,-1.8414,-1.8419,-1.8424,-1.8362,-1.8361,-1.8361,0,0,-1.8428,-1.8426,-1.844,-1.8438,-1.8433,-1.8424,-1.8428,-1.842,-1.8415,-1.8427,-1.8409,-1.8414,-1.8422,-1.8419,-1.8419,-1.8456,-1.8441,-1.8457,-1.8481,-1.8489,-1.8494,-1.8497,-1.8508,-1.8513,-1.846,-1.846,-1.846,0,-1.8454,-1.8464,-1.8449,-1.8459,-1.8459,-1.8438,-1.8451,-1.845,-1.8447,-1.8447,-1.8436,-1.8444,-1.844,-1.8455,-1.8464,-1.8465,-1.8467,-1.8457,-1.8494,-1.8498,-1.8501,-1.8511,-1.8516,-1.8462,-1.8462,-1.8461,-1.8461,0,-1.8494,-1.8501,-1.8513,-1.851,-1.8512,-1.8524,-1.851,-1.8514,-1.8503,-1.8495,-1.8506,-1.8501,-1.8501,-1.8504,-1.8494,-1.8517,-1.8511,-1.8498,-1.8477,-1.8509,-1.8518,-1.8522,-1.8465,-1.8464,-1.8463,-1.8463,0,0,-1.8554,-1.8542,-1.8546,-1.8543,-1.8537,-1.8542,-1.8552,-1.8552,-1.8555,-1.8554,-1.856,-1.8567,-1.8554,-1.8553,-1.8543,-1.8551,-1.8577,-1.8536,-1.8535,-1.8542,-1.8599,-1.8608,-1.8613,-1.8568,-1.8569,-1.8569,-1.8599,0,-1.8589,-1.8606,-1.8592,-1.8611,-1.8616,-1.8595,-1.8604,-1.86,-1.8593,-1.8596,-1.8587,-1.8591,-1.8575,-1.8574,-1.8581,-1.8572,-1.8588,-1.857,-1.8572,-1.8573,-1.8572,-1.8618,-1.8628,-1.8656,-1.8603,-1.8603,-1.8604,0,-1.8633,-1.8633,-1.8652,-1.8642,-1.8644,-1.8652,-1.865,-1.8653,-1.8648,-1.8642,-1.8641,-1.8627,-1.8635,-1.8617,-1.8627,-1.8615,-1.8615,-1.8611,-1.8611,-1.8609,-1.8589,-1.8615,-1.8665,-1.8668,-1.861,-1.8609,-1.8609,0,-1.8672,-1.8677,-1.8688,-1.8686,-1.8676,-1.8681,-1.8677,-1.8671,-1.8671,-1.867,-1.867,-1.867,-1.8669,-1.8669,-1.8655,-1.8643,-1.8666,-1.8647,-1.8659,-1.8659,-1.8663,-1.8663,-1.8712,-1.8667,-1.8667,-1.8667,-1.8667,0,-1.8712,-1.8724,-1.8704,-1.8711,-1.8723,-1.8707,-1.8719,-1.8713,-1.8707,-1.8712,-1.8695,-1.8699,-1.8682,-1.8684,-1.8673,-1.8682,-1.8682,-1.8676,-1.8673,-1.8677,-1.8677,-1.8675,-1.8672,-1.8668,-1.8668,-1.8668,-1.8668,0,-1.8757,-1.8745,-1.8755,-1.8744,-1.8741,-1.875,-1.874,-1.8745,-1.8736,-1.8742,-1.8742,-1.8728,-1.873,-1.8717,-1.8716,-1.8709,-1.8721,-1.8716,-1.8723,-1.872,-1.8733,-1.8731,-1.878,-1.8785,-1.8739,-1.874,-1.874,0,-1.8782,-1.879,-1.878,-1.8781,-1.8777,-1.8781,-1.878,-1.8765,-1.8766,-1.8759,-1.8765,-1.8765,-1.8764,-1.8767,-1.8757,-1.8756,-1.8748,-1.8766,-1.8748,-1.8751,-1.8746,-1.8745,-1.8744,-1.8769,-1.8769,-1.877,-1.877,0,-1.8828,-1.8821,-1.8821,-1.882,-1.882,-1.8818,-1.8815,-1.8817,-1.88,-1.8801,-1.8802,-1.8802,-1.88,-1.88,-1.8796,-1.8791,-1.8777,-1.8776,-1.8778,-1.8781,-1.8784,-1.878,-1.873,-1.8775,-1.8774,-1.8774,-1.8774,-1.8773,-1.8862,-1.8867,-1.886,-1.8861,-1.8856,-1.8853,-1.8857,-1.8848,-1.8849,-1.8846,-1.8837,-1.8839,-1.8832,-1.8826,-1.8822,-1.8823,-1.8815,-1.8819,-1.882,-1.882,-1.8822,-1.8786,-1.8823,-1.8823,-1.8823,-1.8823,-1.8822,0,-1.8904,-1.8898,-1.8899,-1.8895,-1.8895,-1.8882,-1.8878,-1.8878,-1.888,-1.8875,-1.8874,-1.8875,-1.8874,-1.8863,-1.8861,-1.8863,-1.8857,-1.8863,-1.8862,-1.886,-1.8831,-1.8828,-1.8868,-1.8868,-1.8868,-1.8868,-1.8868,-1.8868,-1.8926,-1.8934,-1.8926,-1.8931,-1.8925,-1.8927,-1.8925,-1.8921,-1.8917,-1.8918,-1.8917,-1.891,-1.8902,-1.8899,-1.8897,-1.8894,-1.8892,-1.8901,-1.8895,-1.8867,-1.8863,-1.8858,-1.8855,-1.8901,-1.8901,-1.8924,-1.8924,-1.8925]},{"header":{"parameterUnit":"m.s-1","parameterCategory":1,"la1":30.2991,"la2":30.254,"lo1":-89.0895,"lo2":-89.0444,"dy":0.0017,"dx":0.0017,"nx":28,"ny":28,"refTime":"2025-03-30T03:00:00:Z","depth":0,"parameterNumber":3,"parameterNumberName":"V-component_of_WINDS"},"data":[0,0,0,0,0,0,0,0,0,0,0,0,0,0,0,0,0,0,0,0,0,0,0,0,0,0,0,0,0,0,0,0,0,0,0,0,0,0,0,0,0,0,0,0,0,0,0,0,0,0,0,0,0,0,0,0,0,0,4.0252,4.0252,0,4.0215,4.0215,4.0214,4.0206,4.0206,4.0206,4.0207,4.0166,4.0165,4.0164,0,0,0,0,0,0,0,0,0,0,0,0,0,4.0318,4.0316,4.0252,4.0252,4.0251,4.0215,4.0215,4.0214,4.0206,4.0206,4.0206,4.0207,4.0167,4.0165,4.0164,0,0,0,0,0,0,0,0,0,0,0,0,0,4.0286,4.0316,4.0252,4.0243,4.0242,4.0215,4.0215,4.0214,4.0206,4.0206,4.0207,4.0207,4.0167,4.0165,4.0163,4.0143,0,0,4.0157,4.0157,0,0,0,0,0,0,0,0,4.0287,4.0283,4.0245,4.0244,4.0242,4.0216,4.0223,4.019,4.0206,4.0219,4.0207,4.0207,4.0182,4.0179,4.0171,4.0141,4.0139,4.0157,4.0156,4.0155,4.0155,0,0,0,0,0,0,0,4.029,4.0285,4.0237,4.0244,4.0243,4.0241,4.0237,4.0217,4.0199,4.0218,4.0217,4.0213,4.0182,4.0173,4.017,4.0139,4.0157,4.0155,4.0154,4.0153,4.0095,4.0095,0,0,0,0,0,0,4.0294,4.0287,4.0239,4.0236,4.0266,4.024,4.0235,4.0224,4.0199,4.0196,4.0213,4.0213,4.0176,4.0172,4.0169,4.0146,4.0155,4.0153,4.0152,4.0095,4.0095,4.0095,0,0,0,0,0,0,4.0295,4.0289,4.024,4.0261,4.0255,4.0238,4.0225,4.0223,4.0214,4.0195,4.0192,4.0207,4.0176,4.0171,4.0151,4.0144,4.0152,4.0151,4.0096,4.0095,4.0095,4.0098,0,0,0,0,0,0,4.0297,4.029,4.0281,4.0261,4.0254,4.0222,4.0225,4.0222,4.0211,4.0211,4.0189,4.0186,4.0176,4.0154,4.0149,4.0142,4.0149,4.0096,4.0096,4.0095,4.0099,4.0098,4.0097,0,0,0,0,0,4.0299,4.0282,4.0281,4.0275,4.0243,4.0222,4.0217,4.0207,4.021,4.0202,4.0191,4.0187,4.0146,4.0152,4.0146,4.0138,4.0097,4.0096,4.0095,4.0099,4.0098,4.0097,0,0,0,0,0,0,4.0299,4.0279,4.0277,4.0253,4.024,4.022,4.0209,4.0206,4.019,4.0191,4.0179,4.0174,4.0155,4.0144,4.0151,4.012,4.0122,4.012,4.0126,4.0125,4.0125,4.0128,4.0147,0,0,0,0,0,4.0297,4.0282,4.0265,4.0245,4.0239,4.0226,4.0216,4.021,4.0195,4.0188,4.0175,4.0161,4.0145,4.0135,4.0119,4.0098,4.0094,4.009,4.0089,4.0089,4.0087,4.0079,4.0078,4.0092,4.0092,4.0092,0,0,4.0291,4.0278,4.0268,4.0245,4.0234,4.0219,4.022,4.0203,4.0193,4.0186,4.0166,4.0157,4.014,4.012,4.011,4.011,4.0083,4.0088,4.0088,4.0086,4.0078,4.0077,4.0075,4.0091,4.0091,4.0092,0,0,4.0273,4.0261,4.0245,4.0235,4.0219,4.0211,4.0208,4.019,4.0184,4.0165,4.016,4.0148,4.012,4.011,4.01,4.0085,4.0081,4.008,4.0076,4.0068,4.0067,4.0066,4.0062,4.0061,4.0078,4.0079,4.0079,0,4.0267,4.0244,4.0237,4.0222,4.0213,4.0209,4.0193,4.0184,4.0163,4.0157,4.0159,4.0127,4.0115,4.0094,4.0091,4.0083,4.008,4.0082,4.0068,4.0067,4.0066,4.0062,4.0061,4.0079,4.0079,4.0079,4.0079,0,4.024,4.0225,4.0214,4.0197,4.0187,4.0171,4.0163,4.0154,4.015,4.0143,4.0125,4.0112,4.0095,4.009,4.0085,4.007,4.0071,4.007,4.0072,4.0065,4.0061,4.006,4.0079,4.0079,4.0079,4.0079,0,0,4.0216,4.0199,4.0195,4.0189,4.0174,4.0162,4.0149,4.0135,4.0128,4.0115,4.0105,4.0084,4.0085,4.0075,4.007,4.0063,4.0055,4.0063,4.0063,4.0064,4.004,4.0041,4.004,4.0053,4.0053,4.0053,4.0042,0,4.0197,4.0173,4.0168,4.0148,4.0136,4.0134,4.0123,4.0113,4.0107,4.0096,4.009,4.0076,4.0077,4.0072,4.0065,4.0057,4.005,4.0058,4.0044,4.0044,4.0048,4.0037,4.0037,4.0028,4.0041,4.004,4.004,0,4.017,4.016,4.0139,4.013,4.0124,4.0114,4.0103,4.0093,4.0083,4.0079,4.0071,4.0068,4.0055,4.0059,4.0043,4.0049,4.0044,4.004,4.0039,4.0037,4.0041,4.0036,4.0024,4.0023,4.0038,4.0038,4.0038,0,4.0158,4.0138,4.0125,4.0119,4.0107,4.0101,4.0096,4.0086,4.008,4.007,4.0066,4.0055,4.0048,4.0041,4.0035,4.0038,4.0021,4.0023,4.0019,4.0019,4.0014,4.0014,4.0002,4.001,4.001,4.001,4.001,0,4.0137,4.0124,4.0119,4.0111,4.0098,4.0094,4.0082,4.0076,4.0069,4.0061,4.0058,4.005,4.0044,4.0035,4.0031,4.002,4.0017,4.0015,4.0014,4.0015,4.0016,4.0011,4.0012,4.001,4.001,4.001,4.001,0,4.0119,4.0115,4.0101,4.0093,4.0091,4.0082,4.0075,4.0068,4.0064,4.0053,4.005,4.0044,4.0035,4.0029,4.0016,4.0014,4.0003,4.0001,4.0006,4.0006,4.0002,4.0003,3.9986,3.9985,3.9993,3.9993,3.9993,0,4.0106,4.0097,4.009,4.0085,4.008,4.0071,4.0066,4.0063,4.0057,4.0048,4.0042,4.0034,4.0026,4.0012,4.0006,3.9998,3.9997,3.9992,3.9995,3.9998,3.9998,3.9999,4.0,3.9991,3.9991,3.9991,3.9991,0,4.0084,4.0084,4.0076,4.0069,4.0063,4.0057,4.005,4.0046,4.0043,4.0037,4.0029,4.0023,4.0013,4.0005,3.9997,3.9992,3.9992,3.999,3.9989,3.999,3.9994,3.9994,4.0005,3.999,3.999,3.999,3.999,3.999,4.0069,4.0062,4.0058,4.005,4.0046,4.0042,4.0036,4.0033,4.0026,4.0018,4.0017,4.0009,4.0004,3.9994,3.999,3.9984,3.9985,3.9982,3.9982,3.9981,3.9982,3.9995,3.9982,3.9982,3.9982,3.9982,3.9982,0,4.0048,4.0046,4.0039,4.0033,4.0028,4.003,4.0025,4.0021,4.0014,4.001,4.0004,3.9996,3.999,3.9986,3.998,3.9976,3.9976,3.9975,3.9975,3.9975,3.9981,3.9983,3.9975,3.9975,3.9975,3.9975,3.9975,3.9975,4.0036,4.0027,4.0027,4.0017,4.0015,4.0008,4.0005,4.0002,3.9999,3.9991,3.9987,3.9985,3.9982,3.9976,3.9972,3.9971,3.9969,3.9968,3.9967,3.9973,3.9974,3.9974,3.9977,3.9968,3.9968,3.9962,3.9962,3.9962]}]]